Hourly Data Report for October 02, 2013

All times are specified in Local Standard Time (LST). Add 1 hour to adjust for Daylight Saving Time where and when it is observed.

KITCHENER/WATERLOO
ONTARIO

43°27'39.000" N
80°22'43.000" W
321.60 m
6144239
71368
YKF

Download Data

Hourly Data (October 2013)
Hourly Data Report for October 2, 2013
Temp Definition
°C
Dew Point Temp Definition
°C
Rel Hum Definition
%
Wind Dir Definition
10's deg

Wind Spd Definition
km/h
Visibility Definition
km
Stn Press Definition
kPa
Hmdx Definition


Wind Chill Definition


Weather Definition


TIME
00:00 Legend Double Dagger 16.9 14.5 85 25 22 12.9 97.55     LegendNANA
01:00 Legend Double Dagger 17.0 14.5 85 25 17 16.1 97.55     LegendNANA
02:00 Legend Double Dagger 17.1 14.8 86 25 21 14.5 97.52     LegendNANA
03:00 Legend Double Dagger 17.2 15.1 87 25 18 14.5 97.50     LegendNANA
04:00 Legend Double Dagger 17.2 15.2 88 25 15 14.5 97.55     LegendNANA
05:00 Legend Double Dagger 16.7 15.0 90 26 15 11.3 97.61     LegendNANA
06:00 Legend Double Dagger 16.3 15.0 92 28 15 8.1 97.66     LegendNANA
07:00 Legend Double Dagger 16.3 15.0 92 28 9 6.4 97.73     LegendNANA
08:00 Legend Double Dagger 16.7 15.0 90 28 15 8.1 97.81     LegendNANA
09:00 Legend Double Dagger 18.1 15.2 83 28 15 14.5 97.88     LegendNANA
10:00 Legend Double Dagger 19.8 14.3 70 31 15 16.1 97.89     LegendNANA
11:00 Legend Double Dagger 20.5 13.9 65 29 11 16.1 97.91     LegendNANA
12:00 Legend Double Dagger 21.8 12.3 54 29 17 16.1 97.93     LegendNANA
13:00 Legend Double Dagger 22.7 10.2 45 27 21 16.1 97.90     LegendNANA
14:00 Legend Double Dagger 23.2 6.2 33 29 22 16.1 97.88     LegendNANA
15:00 Legend Double Dagger 23.0 5.2 31 28 24 16.1 97.90     LegendNANA
16:00 Legend Double Dagger 21.9 4.5 32 31 17 16.1 97.92     LegendNANA
17:00 Legend Double Dagger 20.1 6.1 40 31 13 16.1 97.95     LegendNANA
18:00 Legend Double Dagger 16.7 4.0 43 31 11 16.1 97.99     LegendNANA
19:00 Legend Double Dagger 13.9 4.1 51 33 8 16.1 98.04     LegendNANA
20:00 Legend Double Dagger 12.0 4.5 60 LegendMM 4 16.1 98.10     LegendNANA
21:00 Legend Double Dagger 7.7 5.7 87   0 16.1 98.10     LegendNANA
22:00 Legend Double Dagger 8.0 5.5 84 33 5 16.1 98.13     LegendNANA
23:00 Legend Double Dagger 6.9 5.1 88   0 16.1 98.15     LegendNANA

Notes on Data Quality.

Legend

  • E = Estimated
  • M = Missing
  • NA = Not Available
  • ‡ = Partner data that is not subject to review by the National Climate Archives
Date modified: